Bullhead City, AZ

7:44 AM MST on January 16, 2018 (GMT -0700)
Laughlin-Bullhead International

Weather History for KIFP - September, 2013

Change the Weather History Date:

Thursday, September 19, 2013

  Actual Average Record
Temperature  
Mean Temperature 86 °F -  
Max Temperature 98 °F 97 °F 107 °F (2000)
Min Temperature 73 °F 75 °F 60 °F (1989)
Cooling Degree Days 20    
Growing Degree Days 36 (Base 50)    
Moisture  
Dew Point 36 °F    
Average Humidity 18    
Maximum Humidity 29    
Minimum Humidity 10    
Precipitation  
Precipitation 0.00 in - - ()
Sea Level Pressure  
Sea Level Pressure 29.72 in    
Wind  
Wind Speed 10 mph (North)    
Max Wind Speed 30 mph    
Max Gust Speed 36 mph    
Visibility 10 miles    
Events      
Averages and records for this station are not official NWS values.
T = Trace of Precipitation, MM = Missing Value Source: NWS Daily Summary

Daily Weather History Graph

Daily Weather History Graph

Search for Another Location

Airport or City:

Trip Planner

Search our weather history database for the weather conditions in past years. The results will help you decide how hot, cold, wet, or windy it might be!

Date:

Astronomy

Sep. 19, 2013 Rise Set
Actual Time 6:24 AM MST 6:38 PM MST
Civil Twilight 5:58 AM MST 7:04 PM MST
Nautical Twilight 5:29 AM MST 7:33 PM MST
Astronomical Twilight 4:59 AM MST 8:03 PM MST
Moon 6:42 PM MST (9/19) 6:35 AM MST (9/19)
Length of Visible Light 13h 05m
Length of Day
12h 14m
Full, 100% of the Moon is Illuminated
Sep 19
Full
Sep 26
Last Quarter
Oct 4
New
Oct 11
First Quarter
Oct 18
Full

Hourly Weather History & Observations

Time (MST) Temp. Dew Point Humidity Pressure Visibility Wind Dir Wind Speed Gust Speed Precip Events Conditions
12:15 AM 77.0 °F 37.4 °F 24% 29.68 in 10.0 mi Calm Calm - N/A   Clear
12:35 AM 77.0 °F 37.4 °F 24% 29.69 in 10.0 mi North 5.8 mph - N/A   Clear
12:55 AM 78.8 °F 35.6 °F 21% 29.69 in 10.0 mi NNE 4.6 mph - N/A   Clear
1:15 AM 78.8 °F 37.4 °F 23% 29.69 in 10.0 mi North 5.8 mph - N/A   Clear
1:35 AM 77.0 °F 37.4 °F 24% 29.70 in 10.0 mi North 4.6 mph - N/A   Clear
1:55 AM 77.0 °F 37.4 °F 24% 29.70 in 10.0 mi Calm Calm - N/A   Clear
2:15 AM 77.0 °F 37.4 °F 24% 29.70 in 10.0 mi Calm Calm - N/A   Clear
2:35 AM 75.2 °F 39.2 °F 27% 29.70 in 10.0 mi Calm Calm - N/A   Clear
2:55 AM 73.4 °F 39.2 °F 29% 29.70 in 10.0 mi North 3.5 mph - N/A   Clear
3:15 AM 73.4 °F 39.2 °F 29% 29.70 in 10.0 mi Calm Calm - N/A   Clear
3:35 AM 73.4 °F 39.2 °F 29% 29.70 in 10.0 mi Calm Calm - N/A   Clear
3:55 AM 75.2 °F 39.2 °F 27% 29.70 in 10.0 mi ENE 4.6 mph - N/A   Clear
4:15 AM 73.4 °F 39.2 °F 29% 29.71 in 10.0 mi NE 4.6 mph - N/A   Clear
4:35 AM 77.0 °F 37.4 °F 24% 29.71 in 10.0 mi Calm Calm - N/A   Clear
4:55 AM 82.4 °F 32.0 °F 16% 29.71 in 10.0 mi NNE 8.1 mph - N/A   Clear
5:15 AM 82.4 °F 33.8 °F 17% 29.71 in 10.0 mi North 16.1 mph - N/A   Clear
5:35 AM 82.4 °F 35.6 °F 19% 29.72 in 10.0 mi North 16.1 mph 20.7 mph N/A   Clear
5:55 AM 82.4 °F 37.4 °F 20% 29.72 in 10.0 mi North 18.4 mph - N/A   Clear
6:15 AM 82.4 °F 37.4 °F 20% 29.73 in 10.0 mi North 20.7 mph 24.2 mph N/A   Clear
6:35 AM 82.4 °F 37.4 °F 20% 29.74 in 10.0 mi North 18.4 mph 26.5 mph N/A   Clear
6:55 AM 82.4 °F 37.4 °F 20% 29.75 in 10.0 mi North 25.3 mph 28.8 mph N/A   Clear
7:15 AM 82.4 °F 39.2 °F 21% 29.75 in 10.0 mi North 23.0 mph 29.9 mph N/A   Clear
7:35 AM 82.4 °F 39.2 °F 21% 29.76 in 10.0 mi North 23.0 mph 28.8 mph N/A   Clear
7:55 AM 82.4 °F 39.2 °F 21% 29.76 in 10.0 mi North 24.2 mph - N/A   Clear
8:15 AM 84.2 °F 39.2 °F 20% 29.76 in 10.0 mi North 25.3 mph 32.2 mph N/A   Clear
8:35 AM 84.2 °F 39.2 °F 20% 29.77 in 10.0 mi North 21.9 mph 26.5 mph N/A   Clear
8:55 AM 84.2 °F 39.2 °F 20% 29.78 in 10.0 mi North 19.6 mph 31.1 mph N/A   Clear
9:15 AM 86.0 °F 37.4 °F 18% 29.77 in 10.0 mi North 21.9 mph 29.9 mph N/A   Clear
9:35 AM 86.0 °F 37.4 °F 18% 29.77 in 10.0 mi North 26.5 mph 32.2 mph N/A   Clear
9:55 AM 86.0 °F 37.4 °F 18% 29.78 in 10.0 mi North 26.5 mph 35.7 mph N/A   Clear
10:15 AM 87.8 °F 37.4 °F 17% 29.77 in 10.0 mi North 29.9 mph 34.5 mph N/A   Clear
10:35 AM 89.6 °F 37.4 °F 16% 29.77 in 10.0 mi North 27.6 mph 33.4 mph N/A   Clear
10:55 AM 89.6 °F 35.6 °F 15% 29.77 in 10.0 mi North 26.5 mph 32.2 mph N/A   Clear
11:15 AM 89.6 °F 37.4 °F 16% 29.77 in 10.0 mi North 27.6 mph 33.4 mph N/A   Clear
11:35 AM 91.4 °F 37.4 °F 15% 29.77 in 10.0 mi North 24.2 mph 32.2 mph N/A   Clear
11:55 AM 91.4 °F 37.4 °F 15% 29.76 in 10.0 mi NNW 26.5 mph 31.1 mph N/A   Clear
12:15 PM 91.4 °F 37.4 °F 15% 29.76 in 10.0 mi NNW 24.2 mph 32.2 mph N/A   Clear
12:35 PM 93.2 °F 37.4 °F 14% 29.76 in 10.0 mi NNW 19.6 mph 28.8 mph N/A   Clear
12:55 PM 93.2 °F 35.6 °F 13% 29.76 in 10.0 mi NNW 20.7 mph 25.3 mph N/A   Clear
1:15 PM 95.0 °F 35.6 °F 12% 29.75 in 10.0 mi North 19.6 mph - N/A   Clear
1:35 PM 95.0 °F 35.6 °F 12% 29.74 in 10.0 mi North 19.6 mph - N/A   Clear
1:55 PM 95.0 °F 35.6 °F 12% 29.73 in 10.0 mi North 18.4 mph - N/A   Clear
2:15 PM 96.8 °F 33.8 °F 11% 29.73 in 10.0 mi North 17.3 mph - N/A   Clear
2:35 PM 96.8 °F 32.0 °F 10% 29.72 in 10.0 mi NNW 16.1 mph - N/A   Clear
2:55 PM 96.8 °F 32.0 °F 10% 29.72 in 10.0 mi North 13.8 mph - N/A   Clear
3:15 PM 98.6 °F 32.0 °F 10% 29.71 in 10.0 mi North 13.8 mph - N/A   Clear
3:35 PM 98.6 °F 32.0 °F 10% 29.70 in 10.0 mi North 10.4 mph - N/A   Clear
3:55 PM 98.6 °F 32.0 °F 10% 29.69 in 10.0 mi North 9.2 mph - N/A   Clear
4:15 PM 98.6 °F 32.0 °F 10% 29.69 in 10.0 mi NNW 10.4 mph - N/A   Clear
4:35 PM 98.6 °F 32.0 °F 10% 29.68 in 10.0 mi NNW 10.4 mph - N/A   Clear
4:55 PM 98.6 °F 32.0 °F 10% 29.68 in 10.0 mi North 8.1 mph - N/A   Clear
5:15 PM 98.6 °F 32.0 °F 10% 29.68 in 10.0 mi North 8.1 mph - N/A   Clear
5:35 PM 98.6 °F 32.0 °F 10% 29.68 in 10.0 mi North 9.2 mph - N/A   Clear
5:55 PM 96.8 °F 33.8 °F 11% 29.68 in 10.0 mi North 10.4 mph - N/A   Clear
6:15 PM 95.0 °F 35.6 °F 12% 29.68 in 10.0 mi North 9.2 mph - N/A   Clear
6:35 PM 95.0 °F 39.2 °F 14% 29.68 in 10.0 mi North 6.9 mph - N/A   Clear
6:55 PM 93.2 °F 39.2 °F 15% 29.68 in 10.0 mi North 5.8 mph - N/A   Clear
7:15 PM 91.4 °F 39.2 °F 16% 29.69 in 10.0 mi NNE 4.6 mph - N/A   Clear
7:35 PM 89.6 °F 35.6 °F 15% 29.69 in 10.0 mi East 3.5 mph - N/A   Clear
7:55 PM 87.8 °F 37.4 °F 17% 29.70 in 10.0 mi Calm Calm - N/A   Clear
8:15 PM 86.0 °F 35.6 °F 17% 29.70 in 10.0 mi ENE 4.6 mph - N/A   Clear
8:35 PM 86.0 °F 35.6 °F 17% 29.71 in 10.0 mi ENE 6.9 mph - N/A   Clear
8:55 PM 86.0 °F 37.4 °F 18% 29.72 in 10.0 mi ENE 6.9 mph - N/A   Clear
9:15 PM 84.2 °F 35.6 °F 18% 29.72 in 10.0 mi ENE 6.9 mph - N/A   Clear
9:35 PM 84.2 °F 35.6 °F 18% 29.72 in 10.0 mi East 9.2 mph - N/A   Clear
9:55 PM 84.2 °F 35.6 °F 18% 29.72 in 10.0 mi East 6.9 mph - N/A   Clear
10:15 PM 82.4 °F 35.6 °F 19% 29.73 in 10.0 mi East 8.1 mph - N/A   Clear
10:35 PM 82.4 °F 35.6 °F 19% 29.73 in 10.0 mi ENE 5.8 mph - N/A   Clear
10:55 PM 82.4 °F 35.6 °F 19% 29.73 in 10.0 mi Calm Calm - N/A   Clear
11:15 PM 82.4 °F 35.6 °F 19% 29.73 in 10.0 mi NE 4.6 mph - N/A   Clear
11:35 PM 82.4 °F 35.6 °F 19% 29.73 in 10.0 mi Calm Calm - N/A   Clear
11:55 PM 80.6 °F 37.4 °F 21% 29.73 in 10.0 mi Calm Calm - N/A   Clear